Location: Albert Place
(40.7505°N, 111.9230°W)
Time: 13:25:06
(UTC+00:00)

Cosmos 2278 - Pass Details

Date: 13 December 2025
Orbit: 840 x 849 km, 71.1° (Epoch: 17 January)

Event Time Altitude Azimuth Distance (km) Brightness Sun altitude
Exits shadow 13:14:33 24° 302° (WNW) 1,664 4.7 -16.2°
Maximum altitude 13:17:06 37° 255° (WSW) 1,290 4.2 -15.8°
Drops below altitude 10° 13:22:12 10° 190° (S) 2,446 6.2 -14.9°
Sets 13:24:47 0° 182° (S) 3,376 7.1 -14.4°
